Location: Kimberly
(42.5380°N, 114.3640°W)
Time: 09:55:24
(UTC-06:00)

X-37B - Pass Details

Date: 04 August 2021
Orbit: 381 x 393 km, 45.0° (Epoch: 29 August)

Event Time Altitude Azimuth Distance (km) Brightness Sun altitude
Exits shadow 03:57:45 19° 97° (E) 974 2.9 -22.8°
Drops below altitude 10° 03:58:56 10° 85° (E) 1,393 3.9 -22.7°
Sets 04:01:07 0° 75° (ENE) 2,248 5.2 -22.5°
